Погода в Куртане

Россия / Курганская область     55°46′50″N   67°12′01″E
темп.,
°C
ветер,
м/с
пор.,
м/с
влажн.,
%
обл.,
%
осадки,
мм/ч
давл.,
гПа
погр.,
м
27 сентября, пн
пн2723:00+3в8156293 0.0 1024640
02:00+1в8167198 0.0 1023556
05:00+1в81674100 0.0 1023612
08:00+1в9167151 0.0 1023765
11:00+6в11155073 0.0 10231207
14:00+8в101342100 0.0 10221561
17:00+7в101253100 0.0 10221408
20:00+4всв9146267 0.0 1023922
28 сентября, вт
вт2823:00+4в8136091 0.0 10231026
02:00+4всв81376100 0.0 1022766
05:00+4всв81371100 0.0 1022775
08:00+4всв81363100 0.0 1022989
11:00+7всв101248100 0.0 10211399
14:00+8всв91141100 0.0 10191595
17:00+7всв71142100 0.0 10191631
20:00+5св71261100 0.0 1020717
29 сентября, ср
ср2923:00+5св61170100 0.0 1019642
02:00+3ссв5117698 0.0 1019334
05:00+2ссв512869 0.0 1020287
08:00+2ссв5118561 0.0 1020377
11:00+7ссв675715 0.0 10211019
14:00+8ссв6748100 0.1 10211715
17:00+6ссв6764100 0.1 10221009
20:00+4ссв587287 0.0 1023732
30 сентября, чт
чт3023:00+2ссв368191 0.0 1024357
02:00+1с358792 0.0 1024116
05:00+2с469199 0.1 1024373
08:00+3ссв4573100 0.0 1025813
11:00+4с3462100 0.0 10251138
14:00+7ссз355191 0.0 10241399
17:00+8ссз354680 0.0 1023490
20:00+3сз33625 0.0 102429
1 октября, пт
пт123:00+2зсз33655 0.0 102427
02:00+1з347058 0.0 102346
05:000з467294 0.0 1022103
08:00+3з4963100 0.0 1021267
11:00+6зсз5767100 0.0 1021731
14:00+4з5894100 0.6 1020846
17:00+4ссз4895100 0.9 1021850
20:00+4с5988100 0.2 1023503